Weather History for KDXX - January, 2014

Change the Weather History Date:

Tuesday, January 7, 2014

  Actual Average (KAQP) Record (KAQP)
Temperature  
Mean Temperature 2 °F -  
Max Temperature 8 °F 19 °F 50 °F (2003)
Min Temperature -7 °F 3 °F -18 °F (1997)
Degree Days  
Heating Degree Days 64    
Moisture  
Dew Point -6 °F    
Average Humidity 70    
Maximum Humidity 84    
Minimum Humidity 61    
Precipitation  
Precipitation 0.00 in - - ()
Sea Level Pressure  
Sea Level Pressure 30.16 in    
Wind  
Wind Speed 4 mph (WNW)    
Max Wind Speed 10 mph    
Max Gust Speed -    
Visibility 10 miles    
Events      
Averages and records for this station are not official NWS values.
T = Trace of Precipitation, MM = Missing Value Source: NWS Daily Summary

Daily Weather History Graph

Daily Weather History Graph

Search for Another Location

Airport or City:

Trip Planner

Search our weather history database for the weather conditions in past years. The results will help you decide how hot, cold, wet, or windy it might be!

Date:

Astronomy

Jan. 07, 2014 Rise Set
Actual Time 8:02 AM CST 5:00 PM CST
Civil Twilight 7:29 AM CST 5:33 PM CST
Nautical Twilight 6:52 AM CST 6:10 PM CST
Astronomical Twilight 6:16 AM CST 6:45 PM CST
Moon 11:31 AM CST (1/7) No Moon Set
Length of Visible Light 10h 04m
Length of Day
8h 57m
Waxing Crescent, 46% of the Moon is Illuminated
Jan 7
Waxing Crescent
Jan 7
First Quarter
Jan 15
Full
Jan 23
Last Quarter
Jan 30
New

Hourly Weather History & Observations

Time (CST) Temp. Windchill Dew Point Humidity Pressure Visibility Wind Dir Wind Speed Gust Speed Precip Events Conditions
12:14 AM -4.0 °F -16.3 °F -11.2 °F 71% 30.15 in 10.0 mi West 5.8 mph - N/A   Clear
12:33 AM -4.0 °F -16.3 °F -11.2 °F 71% 30.13 in 10.0 mi WSW 5.8 mph - N/A   Clear
12:54 AM -4.0 °F -14.6 °F -11.2 °F 71% 30.13 in 10.0 mi West 4.6 mph - N/A   Clear
1:14 AM -4.0 °F -12.4 °F -11.2 °F 71% 30.13 in 10.0 mi West 3.5 mph - N/A   Clear
1:33 AM -5.8 °F -14.5 °F -11.2 °F 77% 30.12 in 10.0 mi WSW 3.5 mph - N/A   Clear
1:54 AM -5.8 °F - -13.0 °F 71% 30.12 in 10.0 mi Calm Calm - N/A   Clear
2:14 AM -5.8 °F - -13.0 °F 71% 30.12 in 10.0 mi Calm Calm - N/A   Clear
2:33 AM -5.8 °F - -11.2 °F 77% 30.11 in 10.0 mi Calm Calm - N/A   Clear
2:54 AM -4.0 °F -12.4 °F -11.2 °F 71% 30.12 in 10.0 mi SSW 3.5 mph - N/A   Clear
3:13 AM -4.0 °F - -11.2 °F 71% 30.12 in 10.0 mi Calm Calm - N/A   Clear
3:33 AM -2.2 °F - -9.4 °F 71% 30.11 in 10.0 mi Calm Calm - N/A   Scattered Clouds
3:54 AM -2.2 °F -10.4 °F -9.4 °F 71% 30.11 in 10.0 mi South 3.5 mph - N/A   Scattered Clouds
4:13 AM -2.2 °F -12.5 °F -9.4 °F 71% 30.10 in 10.0 mi South 4.6 mph - N/A   Clear
4:33 AM -0.4 °F -8.3 °F -9.4 °F 66% 30.10 in 10.0 mi South 3.5 mph - N/A   Clear
4:54 AM -0.4 °F -12.0 °F -9.4 °F 66% 30.09 in 10.0 mi SSW 5.8 mph - N/A   Clear
5:13 AM 1.4 °F -6.2 °F -7.6 °F 66% 30.09 in 10.0 mi SW 3.5 mph - N/A   Scattered Clouds
5:33 AM 1.4 °F -8.3 °F -7.6 °F 66% 30.08 in 10.0 mi SSW 4.6 mph - N/A   Scattered Clouds
5:54 AM 1.4 °F -9.9 °F -7.6 °F 66% 30.08 in 10.0 mi SW 5.8 mph - N/A   Scattered Clouds
6:13 AM 1.4 °F -8.3 °F -7.6 °F 66% 30.09 in 10.0 mi WSW 4.6 mph - N/A   Clear
6:33 AM 1.4 °F - -7.6 °F 66% 30.09 in 10.0 mi Calm Calm - N/A   Scattered Clouds
6:54 AM 1.4 °F -6.2 °F -7.6 °F 66% 30.09 in 10.0 mi WSW 3.5 mph - N/A   Scattered Clouds
7:13 AM 3.2 °F -7.8 °F -5.8 °F 66% 30.09 in 10.0 mi WSW 5.8 mph - N/A   Mostly Cloudy
7:34 AM 3.2 °F -9.1 °F -5.8 °F 66% 30.09 in 10.0 mi West 6.9 mph - N/A   Mostly Cloudy
7:54 AM 3.2 °F -9.1 °F -5.8 °F 66% 30.09 in 10.0 mi West 6.9 mph - N/A   Mostly Cloudy
8:13 AM 3.2 °F -6.2 °F -5.8 °F 66% 30.10 in 10.0 mi WNW 4.6 mph - N/A   Mostly Cloudy
8:34 AM 3.2 °F -7.8 °F -5.8 °F 66% 30.10 in 10.0 mi West 5.8 mph - N/A   Overcast
8:54 AM 3.2 °F -6.2 °F -5.8 °F 66% 30.11 in 10.0 mi West 4.6 mph - N/A   Overcast
9:13 AM 3.2 °F -6.2 °F -5.8 °F 66% 30.11 in 10.0 mi NW 4.6 mph - N/A   Overcast
9:34 AM 3.2 °F -4.2 °F -5.8 °F 66% 30.12 in 10.0 mi NW 3.5 mph - N/A   Scattered Clouds
9:54 AM 5.0 °F -2.1 °F -4.0 °F 66% 30.12 in 10.0 mi WNW 3.5 mph - N/A   Clear
10:13 AM 5.0 °F -4.1 °F -4.0 °F 66% 30.13 in 10.0 mi NW 4.6 mph - N/A   Clear
10:34 AM 5.0 °F -2.1 °F -4.0 °F 66% 30.14 in 10.0 mi NNW 3.5 mph - N/A   Clear
10:53 AM 6.8 °F -0.1 °F -4.0 °F 61% 30.13 in 10.0 mi WNW 3.5 mph - N/A   Clear
11:13 AM 6.8 °F -0.1 °F -4.0 °F 61% 30.13 in 10.0 mi WNW 3.5 mph - N/A   Clear
11:34 AM 6.8 °F -0.1 °F -4.0 °F 61% 30.13 in 10.0 mi NW 3.5 mph - N/A   Clear
11:53 AM 6.8 °F - -4.0 °F 61% 30.13 in 10.0 mi Calm Calm - N/A   Unknown
12:13 PM 6.8 °F -0.1 °F -4.0 °F 61% 30.13 in 10.0 mi NW 3.5 mph - N/A   Unknown
12:33 PM 6.8 °F -2.0 °F -4.0 °F 61% 30.13 in 10.0 mi NW 4.6 mph - N/A   Unknown
12:53 PM 8.6 °F 0.1 °F -2.2 °F 62% 30.13 in 10.0 mi NNW 4.6 mph - N/A   Unknown
1:14 PM 8.6 °F -1.3 °F -2.2 °F 62% 30.13 in 10.0 mi NW 5.8 mph - N/A   Unknown
1:33 PM 8.6 °F -2.6 °F -2.2 °F 62% 30.13 in 10.0 mi NNW 6.9 mph - N/A   Clear
1:53 PM 8.6 °F - -2.2 °F 62% 30.14 in 10.0 mi North - - N/A   Clear
2:11 PM 8.6 °F -1.3 °F -2.2 °F 62% 30.14 in 10.0 mi NNW 5.8 mph - N/A   Clear
2:33 PM 8.6 °F -1.3 °F -2.2 °F 62% 30.14 in 10.0 mi NNW 5.8 mph - N/A   Clear
2:53 PM 8.6 °F -1.3 °F -2.2 °F 62% 30.14 in 10.0 mi NNW 5.8 mph - N/A   Clear
3:14 PM 8.6 °F -3.7 °F -0.4 °F 67% 30.15 in 10.0 mi North 8.1 mph - N/A   Clear
3:33 PM 8.6 °F -5.5 °F -2.2 °F 62% 30.16 in 10.0 mi North 10.4 mph - N/A   Clear
3:54 PM 8.6 °F -2.6 °F -2.2 °F 62% 30.17 in 10.0 mi North 6.9 mph - N/A   Clear
4:13 PM 8.6 °F 0.1 °F -2.2 °F 62% 30.17 in 10.0 mi NNW 4.6 mph - N/A   Clear
4:34 PM 6.8 °F -3.5 °F -2.2 °F 67% 30.17 in 10.0 mi North 5.8 mph - N/A   Clear
4:54 PM 6.8 °F -3.5 °F -2.2 °F 67% 30.18 in 10.0 mi North 5.8 mph - N/A   Clear
5:14 PM 5.0 °F -4.1 °F -2.2 °F 72% 30.19 in 10.0 mi North 4.6 mph - N/A   Clear
5:34 PM 6.8 °F - -2.2 °F 67% 30.19 in 10.0 mi Calm Calm - N/A   Clear
5:53 PM 5.0 °F -2.1 °F -2.2 °F 72% 30.21 in 10.0 mi NW 3.5 mph - N/A   Clear
6:14 PM 3.2 °F -6.2 °F -2.2 °F 78% 30.21 in 10.0 mi NNW 4.6 mph - N/A   Clear
6:34 PM 1.4 °F - -5.8 °F 72% 30.22 in 10.0 mi Calm Calm - N/A   Clear
6:53 PM -0.4 °F -8.3 °F -5.8 °F 78% 30.23 in 10.0 mi WNW 3.5 mph - N/A   Clear
7:14 PM 1.4 °F - -4.0 °F 78% 30.22 in 10.0 mi Calm Calm - N/A   Clear
7:34 PM -0.4 °F -8.3 °F -5.8 °F 78% 30.22 in 10.0 mi SW 3.5 mph - N/A   Clear
7:53 PM -0.4 °F - -5.8 °F 78% 30.22 in 10.0 mi Calm Calm - N/A   Clear
8:14 PM -4.0 °F - -9.4 °F 78% 30.23 in 10.0 mi Calm Calm - N/A   Clear
8:34 PM -2.2 °F -10.4 °F -7.6 °F 78% 30.23 in 10.0 mi WNW 3.5 mph - N/A   Clear
8:53 PM -5.8 °F -14.5 °F -9.4 °F 84% 30.24 in 10.0 mi NW 3.5 mph - N/A   Clear
9:14 PM -5.8 °F -14.5 °F -9.4 °F 84% 30.24 in 10.0 mi NW 3.5 mph - N/A   Clear
9:33 PM -2.2 °F -15.6 °F -7.6 °F 78% 30.25 in 10.0 mi NNW 6.9 mph - N/A   Clear
9:53 PM -2.2 °F -14.2 °F -7.6 °F 78% 30.26 in 10.0 mi NNW 5.8 mph - N/A   Clear
10:14 PM -2.2 °F -12.5 °F -7.6 °F 78% 30.26 in 10.0 mi North 4.6 mph - N/A   Clear
10:33 PM -4.0 °F -16.3 °F -9.4 °F 78% 30.26 in 10.0 mi North 5.8 mph - N/A   Clear
10:54 PM -2.2 °F - -7.6 °F 78% 30.26 in 10.0 mi Calm Calm - N/A   Clear
11:14 PM -5.8 °F - -9.4 °F 84% 30.27 in 10.0 mi Calm Calm - N/A   Clear
11:33 PM -5.8 °F - -11.2 °F 77% 30.28 in 10.0 mi Calm Calm - N/A   Clear
11:54 PM -7.6 °F - -11.2 °F 84% 30.28 in 10.0 mi Calm Calm - N/A   Clear